#timestamp,LO_Frequency,Hit 
1501279215.9,286047002.6,N
1501279235.7,286047002.0,N
1501279255.6,286047000.2,N
1501279275.4,286047001.1,N
1501279295.2,286047000.7,N
1501279315.0,286047001.1,N
1501279316.0,286047001.1,N
1501279335.8,286046998.1,N
1501279355.6,286047001.2,N
1501279375.4,286047001.6,N
1501279395.3,286047002.3,N
1501279415.1,286047006.0,N
1501279435.8,286047003.1,N
1501279455.7,286047003.1,N
1501279475.5,286047001.8,N
1501279495.3,286047001.6,N
1501279515.2,286047003.1,N
1501279535.9,286047003.0,N
1501279555.7,286047004.8,N
1501279575.6,286047009.0,N
1501279595.4,286047009.2,N
1501279615.2,286047009.6,N
1501279635.0,286047013.3,N
1501279635.9,286047013.3,N
1501279655.8,286047011.6,N
1501279675.6,286047009.3,N
1501279695.4,286047011.5,N
1501279715.3,286047012.1,N
1501279735.1,286047008.1,N
1501279755.8,286047010.8,N
1501279775.7,286047008.4,N
1501279795.5,286047004.7,N
1501279815.3,286047004.7,N
1501279835.2,286047009.1,N
1501279855.9,286047006.2,N
1501279875.7,286047009.2,N
1501279895.6,286047007.8,N
1501279915.4,286047009.0,N
1501279935.2,286047006.1,N
1501279955.0,286047008.5,N
1501279956.0,286047008.5,N
1501279975.8,286047011.1,N
1501279995.6,286047011.5,N
1501280015.5,286047012.1,N
1501280035.3,286047007.8,N
1501280055.1,286047006.2,N
1501280075.8,286047004.5,N
1501280095.7,286047003.3,N
1501280115.5,286047005.2,N
1501280135.3,286047005.9,N
1501280155.2,286047005.7,N
1501280175.9,286047004.7,N
1501280195.7,286047003.3,N
1501280215.6,286047007.2,N
1501280235.4,286047007.4,N
1501280255.2,286047005.5,N
1501280275.1,286047003.0,N
1501280276.0,286047003.0,N
1501280295.8,286047005.0,N
1501280315.6,286047005.5,N
1501280335.5,286047005.0,N
1501280355.3,286047003.0,N
1501280375.1,286047003.9,N
1501280395.8,286047003.1,N
1501280415.7,286047003.7,N
1501280435.5,286047006.4,N
1501280455.3,286047005.7,N
1501280475.2,286047004.0,N
1501280495.9,286047003.6,N
1501280515.7,286047004.1,N
1501280535.6,286047004.4,N
1501280555.4,286047001.8,N
1501280575.2,286047003.2,N
1501280595.1,286047006.0,N
1501280596.0,286047006.0,N
1501280615.8,286047002.0,N
1501280635.6,286047000.0,N
1501280655.5,286047001.2,N
1501280675.3,286046999.4,N
1501280695.1,286046998.3,N
1501280715.8,286046997.4,N
1501280735.7,286046995.0,N
1501280755.5,286046995.4,N
1501280775.3,286046996.9,N
1501280795.2,286047001.2,N
1501280815.9,286047002.9,N
1501280835.7,286047005.0,N
1501280855.6,286047005.7,N
1501280875.4,286047003.7,N
1501280895.2,286047001.3,N
1501280915.1,286047003.4,N
1501280916.0,286047003.4,N
1501280935.8,286047001.7,N
1501280955.6,286047001.5,N
1501280975.4,286047001.5,N
1501280995.3,286047004.1,N
1501281015.1,286047002.2,N
1501281035.8,286047002.7,N
1501281055.7,286047000.0,N
1501281075.5,286046999.3,N
1501281095.3,286046999.6,N
1501281115.2,286046996.8,N
1501281135.9,286046995.7,N
1501281155.7,286046995.5,N
1501281175.6,286046997.5,N
1501281195.4,286046996.6,N
1501281215.2,286046996.6,N
1501281235.1,286046996.5,N
1501281236.0,286046996.5,N
1501281255.8,286046997.9,N
1501281275.6,286046997.2,N
1501281295.4,286046997.9,N
1501281315.3,286046995.7,N
1501281335.1,286046995.9,N
1501281355.8,286046996.2,N
1501281375.7,286046995.1,N
1501281395.5,286046997.9,N
1501281415.3,286046995.9,N
1501281435.2,286046993.7,N
1501281455.9,286046993.7,N
1501281475.7,286046991.7,N
1501281495.6,286046993.6,N
1501281515.4,286046995.7,N
1501281535.2,286046996.6,N
1501281555.1,286046995.8,N
1501281556.0,286046995.8,N
1501281575.8,286046995.4,N
1501281595.6,286046995.3,N
1501281615.5,286046998.2,N
1501281635.3,286047001.1,N
1501281655.1,286046999.0,N
1501281675.8,286046996.6,N
1501281695.7,286046996.2,N
1501281715.5,286046995.8,N
1501281735.3,286046996.9,N
1501281755.2,286046995.1,N
1501281775.9,286046997.8,N
1501281795.7,286046995.2,N
1501281815.6,286047002.6,N
1501281835.4,286047002.1,N
1501281855.2,286047000.9,N
1501281875.1,286046998.2,N
1501281876.0,286046998.2,N
1501281895.8,286046999.2,N
1501281915.6,286046998.1,N
1501281935.5,286046999.9,N
1501281955.3,286047002.3,N
1501281975.1,286047001.3,N
1501281995.8,286047000.7,N
1501282015.7,286047001.5,N
1501282035.5,286047003.4,N
1501282055.3,286047001.6,N
1501282075.2,286047003.0,N
1501282095.9,286047005.6,N
1501282115.7,286047005.9,N
1501282135.6,286047005.5,N
1501282155.4,286047007.5,N
1501282175.2,286047005.0,N
1501282195.1,286047003.1,N
1501282196.0,286047003.1,N
1501282215.8,286047004.3,N
1501282235.6,286047001.6,N
1501282255.5,286047001.9,N
1501282275.3,286047002.1,N
1501282295.1,286047000.2,N
1501282315.8,286046998.6,N
1501282335.7,286047002.6,N
1501282355.5,286047000.1,N
1501282375.3,286047004.2,N
1501282395.2,286047001.5,N
1501282415.9,286047001.9,N
1501282435.7,286047003.8,N
1501282455.6,286047004.4,N
1501282475.4,286047001.9,N
1501282495.2,286047001.3,N
1501282515.1,286047005.5,N
1501282516.0,286047005.5,N
1501282535.8,286047007.6,N
1501282555.6,286047003.0,N
1501282575.5,286047003.8,N
1501282595.3,286047002.9,N
1501282615.1,286047003.9,N
1501282635.8,286047006.0,N
1501282655.7,286047003.2,N
1501282675.5,286047004.0,N
1501282695.3,286047004.1,N
1501282715.2,286047003.9,N
1501282735.9,286047003.2,N
1501282755.7,286047003.1,N
1501282775.6,286047001.4,N
1501282795.4,286047001.4,N
